DECAYED
Showing default

ROSEYCUBESAT-1, 56212 (Decayed)

Orbit data source: Space-Track

ROSEYCUBESAT-1, 56212 was a payload satellite owned by OSM (MC) in LEO that was launched on Sat, 15 Apr 2023 UTC via an FALCON 9 launch vehicle from the Air Force Western Test Range (AFWTR). Payload-class satellites include a variety of spacecraft equipped with specific instruments for various scientific and technological missions. These include communications satellites like Starlink; space stations such as the ISS; scientific satellites like the Hubble; Earth observation satellites from companies like Planet Labs, Umbra, and HawkEye 360; GPS; miniature CubeSats for education and research; and military/defense satellites.

Not visible in the next 10 days
Identifier
56212, 2023-054AL
Orbit
Decayed
Country
Flag of MCMC / MCO
Related business
Manufacturer
OSM
Mission
Decayed Commercial Technology
Bus & Motor
CUBESAT 1U, Unknown motor
Mass
1 kg wet, 1 kg dry
Launch date (UTC)
2023-04-15 (2 years ago)
Launch vehicle
FALCON 9
Launch site
Air Force Western Test Range (AFWTR)
Object type
Payload
Rocket body
Debris
Shape & HBR
Box, 0.1 m
Radar Cross Section
0.015 m², Small (<0.1 m²)

Expand to show TLE details & history
Last TLE update: 1 year ago

TLE from 1 year ago
0 ROSEYCUBESAT-1
1 56212U 23054AL  24244.25808967  .06269002  24714-5  17014-2 0  9994
2 56212  97.3357 150.6539 0009280 196.6965 163.4024 16.28079730 78224
Epoch: 2024-08-31T06:11Z
TLE epoch observation values (Epoch: 2024-08-31T06:11:38.947Z)
Latitude
-0.00004°
Longitude
77.8223°
Altitude
206.793 km
Speed
7.779 km/s
True Right ascension
10h 02m 36s
True Declination
0° 00' 00"
Sunlit
Object was in daylight at epoch
Visualization orbit readout
Latitude
Unknown
Longitude
Unknown
Altitude
Unknown
Speed
Unknown
Apparent Right ascension
Unknown
Apparent Declination
Unknown
Sunlit
N/A
Visualization observer readout
Local Sidereal Time
16:55:20
Azimuth
Unknown
Elevation
Unknown
Doppler factor
Unknown
Orbital elements
Apogee altitude
200.625 km
Perigee altitude
188.426 km
Semi-major axis
6,572.663 km
Eccentricity
0.00093
Inclination
97.3357°
RAAN
150.6539°
Arg. of periapsis
196.6965°
True anomaly
163.43274°
Mean anomaly
163.4024°
Eccentric anomaly
163.41757°
Mean motion
4.07316 °/min
Orbital period
88.38 mins
BSTAR
0.0017014
Loading maneuver chart data...
Computing Atmospheric mass density...
Loading historical data...
Loading historical data...
Loading historical data...
Loading historical data...
Loading historical data...
Loading historical data...
Loading historical data...

Documentation

Showing up to 5 results
|